Location: Newark
(7.1028°S, 35.3258°W)
Time: 06:26:06
(UTC+00:00)

Vanguard 3 - Pass Details

Date: 18 February 2020
Orbit: 508 x 3263 km, 33.4° (Epoch: 07 April)

Event Time Altitude Azimuth Distance (km) Brightness Sun altitude
Rises 19:05:54 0° 325° (NW) 6,244 12.0 23.2°
Reaches altitude 10° 19:10:08 10° 332° (NNW) 5,537 11.7 22.2°
Maximum altitude 19:26:40 41° 37° (NE) 4,138 10.6 18.1°
Drops below altitude 10° 19:44:01 10° 101° (E) 5,866 11.0 13.9°
Sets 19:48:33 0° 107° (ESE) 6,638 11.3 12.8°
